Charleston, WV

7:32 AM EDT on August 21, 2019 (GMT -0400)
Yeager Airport

Weather History for KCRW - June, 2019

Change the Weather History Date:

Friday, June 14, 2019

  Actual Average Record
Temperature  
Mean Temperature 62 °F 72 °F  
Max Temperature 75 °F 82 °F 96 °F (1945)
Min Temperature 48 °F 62 °F 41 °F (1933)
Degree Days  
Heating Degree Days 3 0  
Month to date heating degree days 7 10  
Since 1 June heating degree days 7 10  
Since 1 July heating degree days 4151 4475  
Cooling Degree Days 0 7  
Month to date cooling degree days 52 80  
Year to date cooling degree days 248 190  
Since 1 June cooling degree days 52 80  
Growing Degree Days 12 (Base 50)    
Moisture  
Dew Point 46 °F    
Average Humidity 64    
Maximum Humidity 93    
Minimum Humidity 34    
Precipitation  
Precipitation 0.00 in 0.14 in 1.94 in (1977)
Month to date precipitation 2.02 2.08  
Year to date precipitation 24.25 20.22  
Sea Level Pressure  
Sea Level Pressure 30.13 in    
Wind  
Wind Speed 5 mph (WSW)    
Max Wind Speed 14 mph    
Max Gust Speed 20 mph    
Visibility 10 miles    
Events      
T = Trace of Precipitation, MM = Missing Value Source: NWS Daily Summary

Daily Weather History Graph

Daily Weather History Graph

Search for Another Location

Airport or City:

Astronomy

Jun. 14, 2019 Rise Set
Actual Time 6:02 AM EDT 8:51 PM EDT
Civil Twilight 5:30 AM EDT 9:22 PM EDT
Nautical Twilight 4:50 AM EDT 10:02 PM EDT
Astronomical Twilight 4:05 AM EDT 10:48 PM EDT
Moon 6:13 PM EDT (6/14) 4:16 AM EDT (6/14)
Length of Visible Light 15h 52m
Length of Day
14h 49m
Waxing Gibbous, 92% of the Moon is Illuminated
Jun 14
Waxing Gibbous
Jun 17
Full
Jun 25
Last Quarter
Jul 2
New
Jul 9
First Quarter

Hourly Weather History & Observations

Time (EDT) Temp. Dew Point Humidity Pressure Visibility Wind Dir Wind Speed Gust Speed Precip Events Conditions
12:54 AM 54.0 °F 46.9 °F 77% 30.06 in 10.0 mi WSW 9.2 mph - N/A   Scattered Clouds
1:54 AM 54.0 °F 45.0 °F 72% 30.06 in 10.0 mi SW 8.1 mph - N/A   Scattered Clouds
2:54 AM 52.0 °F 46.0 °F 80% 30.07 in 10.0 mi WSW 8.1 mph - N/A   Scattered Clouds
3:54 AM 51.1 °F 45.0 °F 80% 30.08 in 10.0 mi WSW 6.9 mph - N/A   Partly Cloudy
4:54 AM 52.0 °F 45.0 °F 77% 30.10 in 10.0 mi SW 6.9 mph - N/A   Partly Cloudy
5:54 AM 48.0 °F 46.0 °F 93% 30.12 in 10.0 mi WSW 3.5 mph - N/A   Partly Cloudy
6:54 AM 51.1 °F 46.0 °F 83% 30.15 in 10.0 mi SW 5.8 mph - N/A   Partly Cloudy
7:54 AM 54.0 °F 46.9 °F 77% 30.17 in 10.0 mi WSW 8.1 mph - N/A   Clear
8:54 AM 59.0 °F 48.0 °F 67% 30.19 in 10.0 mi WSW 6.9 mph - N/A   Clear
9:54 AM 62.1 °F 46.0 °F 56% 30.20 in 10.0 mi West 6.9 mph - N/A   Clear
10:54 AM 64.0 °F 44.1 °F 48% 30.21 in 10.0 mi West 9.2 mph 18.4 mph N/A   Partly Cloudy
11:54 AM 66.9 °F 44.1 °F 44% 30.21 in 10.0 mi Variable 5.8 mph - N/A   Scattered Clouds
12:54 PM 69.1 °F 44.1 °F 40% 30.21 in 10.0 mi Variable 6.9 mph 16.1 mph N/A   Scattered Clouds
1:54 PM 70.0 °F 44.1 °F 39% 30.18 in 10.0 mi Variable 5.8 mph - N/A   Scattered Clouds
2:54 PM 72.0 °F 45.0 °F 38% 30.17 in 10.0 mi WSW 6.9 mph - N/A   Partly Cloudy
3:54 PM 72.0 °F 41.0 °F 33% 30.14 in 10.0 mi Calm Calm - N/A   Clear
4:54 PM 73.0 °F 44.1 °F 35% 30.12 in 10.0 mi Variable 3.5 mph - N/A   Scattered Clouds
5:54 PM 73.0 °F 44.1 °F 35% 30.10 in 10.0 mi SSW 8.1 mph - N/A   Scattered Clouds
6:54 PM 73.0 °F 45.0 °F 37% 30.10 in 10.0 mi SW 4.6 mph - N/A   Scattered Clouds
7:54 PM 70.0 °F 46.0 °F 42% 30.10 in 10.0 mi SSW 5.8 mph - N/A   Scattered Clouds
8:54 PM 64.0 °F 52.0 °F 65% 30.10 in 10.0 mi Calm Calm - N/A   Scattered Clouds
9:54 PM 61.0 °F 52.0 °F 72% 30.12 in 10.0 mi Calm Calm - N/A   Scattered Clouds